This demonstration page uses our WeatherBlox Daily Observations layout. Learn more.

Left ArrowRight Arrow

Hourly Observations for March 23, 2015

Temp ( °F °C ) Dew Point ( °F °C ) Humidity (%) Winds ( mph kmh ) Pressure ( in mb ) Visibility ( mi km ) Precip ( " mm )
12:53 am 00:53 Clear 33 0.6 27 -2.8 78 78 ENE 12 19 30.05 1018 10 16 N/A
1:53 am 01:53 Clear 32 undefined 27 -2.8 82 82 ENE 17 28 30.01 1016 10 16 N/A
2:53 am 02:53 Clear 30 -1.1 26 -3.3 85 85 ENE 20 31 30.00 1016 10 16 N/A
3:53 am 03:53 Clear 29 -1.7 25 -3.9 85 85 ENE 22 35 29.98 1015 10 16 N/A
4:53 am 04:53 Clear 28 -2.2 24 -4.4 85 85 ENE 20 31 29.95 1014 10 16 N/A
5:53 am 05:53 Clear 26 -3.3 24 -4.4 92 92 ENE 16 26 29.93 1014 10 16 N/A
6:53 am 06:53 Clear 26 -3.3 23 -5 88 88 ENE 18 30 29.92 1013 10 16 N/A
7:53 am 07:53 Sunny 27 -2.8 23 -5 85 85 E 24 39 29.91 1013 10 16 N/A
8:53 am 08:53 Sunny 31 -0.6 26 -3.3 82 82 E 21 33 29.88 1012 10 16 N/A
9:53 am 09:53 Sunny 35 1.7 27 -2.8 72 72 ENE 18 30 29.86 1011 10 16 N/A
10:53 am 10:53 Mostly Sunny 39 4 28 -2 65 65 ENE 23 37 29.85 1011 10 16 N/A
11:53 am 11:53 Mostly Sunny 43 6.1 30 -1.1 60 60 ENE 25 41 29.80 1009 10 16 N/A
12:53 pm 12:53 Mostly Sunny 47 8.3 31 -0.6 54 54 E 28 44 29.78 1008 10 16 N/A
1:53 pm 13:53 Partly Cloudy 49 9.4 31 -0.6 50 50 E 24 39 29.77 1008 10 16 N/A
2:53 pm 14:53 Mostly Cloudy 51 10.6 32 undefined 48 48 ENE 21 33 29.75 1007 10 16 N/A
3:53 pm 15:53 Cloudy 53 11.7 32 undefined 45 45 E 23 37 29.72 1007 10 16 N/A
4:53 pm 16:53 Mostly Cloudy 52 11.1 31 -0.6 45 45 NE 13 20 29.75 1007 10 16 N/A
5:53 pm 17:53 Cloudy 50 10 31 -0.6 48 48 NE 3 6 29.79 1009 10 16 N/A
6:53 pm 18:53 Cloudy with Light Rain 44 6.7 41 5 89 89 W 7 11 29.82 1010 9 14 0.02 0.51
7:53 pm 19:53 Cloudy 44 6.7 42 5.6 93 93 SSE 3 6 29.81 1009 10 16 0.01 0.25
8:53 pm 20:53 Mostly Cloudy 41 5 40 4.4 96 96 N 5 7 29.82 1010 10 16 N/A
9:53 pm 21:53 Mostly Clear 36 2.2 34 1.1 93 93 NW 16 26 29.85 1011 10 16 N/A
10:09 pm 22:09 Mostly Cloudy 36 2.2 34 1.1 93 93 NW 15 24 29.85 1011 10 16 N/A
10:50 pm 22:50 Cloudy 36 2 34 1 93 93 WNW 8 13 29.85 1011 10 16 N/A
10:53 pm 22:53 Mostly Cloudy 35 1.7 34 1.1 96 96 WNW 6 9 29.85 1011 10 16 N/A
11:53 pm 23:53 Cloudy 34 1.1 32 undefined 92 92 W 9 15 29.87 1011 10 16 N/A

Powered by AerisWeather